This is the latest recevied weather packets stored in our database for station/object KK4WXG. If no packets are shown the sender has not sent any weather packets the latest 10 day(s).
| Time | Temp. | Humidity | Pressure | Rain* | Wind** | Luminosity | Snow |
|---|---|---|---|---|---|---|---|
| 1777682782 | 14.44° C | 53% | 1009.7 hPa | 0 mm | - | 0 W/m² | - |
| 1777682480 | 15° C | 52% | 1009.7 hPa | 0 mm | - | 0 W/m² | - |
| 1777682178 | 15° C | 51% | 1009.5 hPa | 0 mm | - | 0 W/m² | - |
| 1777681874 | 15° C | 50% | 1009.5 hPa | 0 mm | - | 0 W/m² | - |
| 1777681570 | 15.56° C | 49% | 1009.9 hPa | 0 mm | - | 0 W/m² | - |
| 1777681268 | 15.56° C | 50% | 1009.6 hPa | 0 mm | - | 0 W/m² | - |
| 1777680966 | 15.56° C | 48% | 1009.5 hPa | 0 mm | - | 0 W/m² | - |
| 1777680662 | 15.56° C | 48% | 1009.5 hPa | 0 mm | - | 0 W/m² | - |
| 1777680361 | 16.11° C | 48% | 1009.5 hPa | 0 mm | - | 1 W/m² | - |
| 1777680058 | 16.11° C | 47% | 1009.4 hPa | 0 mm | - | 2 W/m² | - |
| 1777679753 | 16.67° C | 43% | 1009.7 hPa | 0 mm | - | 3 W/m² | - |
| 1777679449 | 16.67° C | 41% | 1009.6 hPa | 0 mm | - | 6 W/m² | - |
| 1777679145 | 16.11° C | 44% | 1009.7 hPa | 0 mm | - | 7 W/m² | - |
| 1777678843 | 16.11° C | 52% | 1009.5 hPa | 0 mm | - | 9 W/m² | - |
| 1777678541 | 16.67° C | 43% | 1009.3 hPa | 0 mm | - | 10 W/m² | - |
| 1777678238 | 16.67° C | 44% | 1009.2 hPa | 0 mm | - | 5 W/m² | - |
| 1777677934 | 16.67° C | 41% | 1009 hPa | 0 mm | - | 5 W/m² | - |
| 1777677631 | 16.67° C | 41% | 1008.9 hPa | 0 mm | - | 8 W/m² | - |
| 1777677329 | 16.67° C | 40% | 1009.1 hPa | 0 mm | - | 10 W/m² | - |
| 1777677027 | 17.22° C | 41% | 1008.7 hPa | 0 mm | - | 17 W/m² | - |
| 1777676726 | 17.22° C | 41% | 1009 hPa | 0 mm | - | 13 W/m² | - |
| 1777676423 | 17.22° C | 41% | 1008.8 hPa | 0 mm | - | 16 W/m² | - |
| 1777676121 | 17.22° C | 41% | 1008.7 hPa | 0 mm | - | 28 W/m² | - |
| 1777675816 | 17.22° C | 40% | 1008.8 hPa | 0 mm | - | 33 W/m² | - |
| 1777675514 | 17.22° C | 40% | 1008.9 hPa | 0 mm | - | 34 W/m² | - |
* Rain latest hour (hover to see other rain measurements)
** Current wind speed in m/s (hover to see current wind gust speed)